Regional Weather Roundup
Issued by NWS

Home | Current Version | Previous Version | Text Only | Print | Product List | Glossary Off
Versions: 1 2 3 4 5 6 7 8 9 10 11 12 13 14 15 16 17 18 19 20 21 22 23 24 25 26 27 28 29 30 31 32 33 34 35 36 37 38 39 40 41 42 43 44 45 46 47 48 49 50

000
ASUS43 KLOT 131108
RWRIL

ILLINOIS REGIONAL WEATHER ROUNDUP
NATIONAL WEATHER SERVICE CHICAGO/ROMEOVILLE IL
500 AM CST SAT FEB 13 2016

NOTE: "FAIR" INDICATES FEW OR NO CLOUDS BELOW 12,000 FEET WITH NO
SIGNIFICANT WEATHER AND/OR OBSTRUCTIONS TO VISIBILITY.

* THESE STATIONS ARE NOT UNDER NWS QUALITY CONTROL. THEY ALSO MAY NOT
  REPORT WEATHER SUCH AS PRECIPITATION OR FOG.

ILZ001-002-007-009-015-016-024-131200-
NORTHWEST ILLINOIS

CITY           SKY/WX    TMP DP  RH WIND       PRES   REMARKS
MOLINE         PTCLDY     5  -6  60 NW7       30.62R WCI  -7
STERLING*      PTCLDY     5  -9  51 NW9       30.57R WCI  -9
SAVANNA*       CLEAR      3 -10  53 N5        30.61S WCI  -6
$$

ILZ003-004-008-010-011-017-018-131200-
NORTH CENTRAL ILLINOIS

CITY           SKY/WX    TMP DP  RH WIND       PRES   REMARKS
ROCKFORD       PTCLDY     3 -10  54 NW8       30.59R WCI -10
FREEPORT*      CLEAR      1 -11  57 NW6       30.59R WCI -10
ROCHELLE*      CLEAR      3  -8  59 NW6       30.58R WCI  -8
DE KALB*       CLEAR      3  -9  55 NW8       30.55R WCI -10
$$

ILZ005-006-012>014-019>023-131200-
NORTHEAST ILLINOIS

CITY           SKY/WX    TMP DP  RH WIND       PRES   REMARKS
CHICAGO-OHARE  PTCLDY     3 -10  54 NW12      30.54R WCI -13
CHICAGO-MIDWAY PTCLDY     5 -11  47 NW13      30.55R WCI -12
AURORA         PTCLDY     4  -7  60 NW8       30.57R WCI  -9
LANSING*       CLEAR      5 -10  49 NW7       30.55R WCI  -7
WAUKEGAN       CLEAR      1 -11  57 NW7       30.52R WCI -12
DUPAGE AIRPORT PTCLDY     2 -11  54 NW10      30.54R WCI -14
KANKAKEE*      CLEAR      6  -8  53 NW8       30.57R WCI  -7
WHEELING       CLEAR      3 -10  54 NW10      30.55S WCI -12
MORRIS*        CLEAR      4  -8  56 NW5       30.54R WCI  -5
ROMEOVILLE*    CLEAR      4 -11  50 NW10      30.56R WCI -12
NORTHERLY ISL    N/A      6  -7  54 NW15        N/A  WCI -11
$$

LMZ740>746-131200-
SOUTHERN LAKE MICHIGAN

STATION/POSITION SKY/WX   TEMP    WIND        PRES    VSBY  WAVE
                          AIR SEA DIR/SP/G                  HT/PER
                          (F)     (DEG/KT/KT) (MB)    (MI)  (FT/S)
HARRISON CRIB               6     300/ 18/ 21   N/A
BURNHAM HARBOR              6     300/ 10/ 18   N/A
CALUMET HARBOR              5     280/ 10/ 16 1033.0R
BURNS HARBOR               11     320/ 21     1032.8R
MICHIGAN CITY              12     290/ 20/ 27   N/A
$$

ILZ025>027-034>036-040-047-049-050-058-095>099-131200-
WEST-CENTRAL ILLINOIS

CITY           SKY/WX    TMP DP  RH WIND       PRES   REMARKS
QUINCY         PTCLDY     3  -4  72 N6        30.62S WCI  -8
GALESBURG*     PTCLDY     1  -5  75 W5        30.61S WCI  -8
MACOMB*        PTCLDY     6  -2  70 N7        30.65S WCI  -6
JACKSONVILLE*  CLOUDY    10   0  63 NW9       30.63R WCI  -3
PITTSFIELD*    CLOUDY     8   0  70 NW7       30.63R WCI  -4
$$

ILZ028>032-037-038-041>044-048-051>054-059>061-131200-
CENTRAL ILLINOIS

CITY           SKY/WX    TMP DP  RH WIND       PRES   REMARKS
PONTIAC        CLEAR      6  -4  63 NW5       30.60R WCI  -3
BLOOMINGTON    CLEAR      5  -6  60 N7        30.57R WCI  -7
DECATUR        CLEAR      8  -2  63 N12       30.59R WCI  -7
PEORIA         CLOUDY     6  -8  52 N5        30.62R WCI  -3
LACON*         CLEAR      5  -7  57 NW5       30.61R WCI  -4
LINCOLN*       CLOUDY     8  -2  64 N3        30.61R
SPRINGFIELD    PTCLDY     8  -2  63 N8        30.62R WCI  -4
TAYLORVILLE    CLEAR      9   1  72 N10       30.61R WCI  -6
$$

ILZ033-039-045-046-055>057-062-063-131200-
EAST-CENTRAL ILLINOIS

CITY           SKY/WX    TMP DP  RH WIND       PRES   REMARKS
CHAMPAIGN      CLEAR      7  -3  64 N12       30.56R WCI  -8
RANTOUL*       CLEAR      8  -4  57 N12       30.56R WCI  -7
MATTOON        CLEAR      7  -2  66 N12       30.56R WCI  -8
PARIS*         CLEAR      8  -2  64 N8        30.57R WCI  -5
$$

ILZ079-100>102-131200-
SOUTHWEST ILLINOIS

CITY           SKY/WX    TMP DP  RH WIND       PRES   REMARKS
ALTON          PTCLDY    11   2  68 NW8       30.64R WCI  -1
BELLEVILLE     CLEAR     12   3  67 NW6       30.62R WCI   3
CAHOKIA*       CLEAR     13   2  61 N9        30.64R WCI   1
SPARTA*        CLEAR     13   3  65 N8        30.61R WCI   2
$$

ILZ064>066-069>071-074>076-080>082-084>086-088>090-092>094-131200-
SOUTH-CENTRAL ILLINOIS

CITY           SKY/WX    TMP DP  RH WIND       PRES   REMARKS
CARBONDALE     CLEAR     15   3  59 N13       30.60R WCI   1
CAIRO*         PTCLDY    18  10  69 N12       30.58R WCI   6
EFFINGHAM*     CLEAR     12   4  71 NW10      30.60R WCI  -2
MARION         CLEAR     16   7  67 N8        30.60R WCI   5
MT. VERNON     CLEAR     12   0  57 N5        30.59R WCI   4
CENTRALIA*     CLEAR     14   5  67 N9        30.59R WCI   2
SALEM*         CLEAR     14   3  61 N10       30.59R WCI   1
METROPOLIS*    CLEAR     18   8  63 N12G17    30.58R WCI   6
$$

ILZ067-068-072-073-078-083-087-091-131200-
SOUTHEAST ILLINOIS

CITY           SKY/WX    TMP DP  RH WIND       PRES   REMARKS
LAWRENCEVILLE  CLEAR     13   3  64 N10       30.58R WCI   0
FLORA*         CLEAR     14   4  64 N7        30.60R WCI   4
FAIRFIELD*     CLEAR     14   4  65 N9        30.59R WCI   1
HARRISBURG*    CLEAR     15   6  66 N9        30.60R WCI   3
ROBINSON*      CLEAR     11   1  63 N13       30.58R WCI  -4
CARMI*         CLEAR     14   5  68 N8        30.58R WCI   3
$$

ABBREVIATIONS USED IN REMARKS
   TC - TEMPERATURE IN CELSIUS
  WCI - WIND CHILL INDEX
   HX - HEAT INDEX
  VSB - VISIBILITY
$$




USA.gov is the U.S. government's official web portal to all federal, state and local government web resources and services.